Home   Weather   Adliswil   Past weeks

Flag for Switzerland Past Weather in Adliswil, Zurich, Switzerland — Yesterday and Last 2 Weeks

Now
23 °F

Cold.


Feels Like: 13 °F
Forecast: 17 / 21 °F
Wind: 9 mph from Northeast

Location: Zuerich-Fluntern

Current Time: Jan 17, 2017 at 4:34:03 pm

Latest Report: Jan 17, 2017 at 3:00 pm


Visibility: N/A

Pressure: 30.40 "Hg

Humidity: 74%

Dew Point: 16 °F

Location of AdliswilLocation

Past Weather in Adliswil — Graph

°F

Adliswil Temperature Yesterday

Maximum temperature yesterday: 29 °F (at 12:00 pm)
Minimum temperature yesterday: 21 °F (at 10:00 pm)
Average temperature yesterday: 25 °F

High & Low Weather Summary for the Past Weeks

 TemperatureHumidityPressure
High41 °F (Jan 12, 2:00 pm)100% (Jan 7, 6:00 am)30.74 "Hg (Jan 7, 6:00 am)
Low10 °F (Jan 7, 4:00 am)65% (Jan 4, 11:00 am)29.55 "Hg (Jan 13, 12:00 am)
Average28 °F87%30.25 "Hg
* Reported Jan 2 3:00 pm — Jan 17 3:00 pm, Adliswil, Weather by CustomWeather, © 2017

Note: Actual official high and low records may vary slightly from our data, if they occured in-between our weather recording intervals... More about our weather records

Advertising

Adliswil Weather History for the Previous 24 Hours

Scroll right to see more
 ConditionsComfort  
Time TempWeatherWind HumidityBarometerVisibility
3:00 pm
Tue, Jan 17
23 °FCold.9 mph74%30.40 "HgN/A
2:00 pm23 °FCold.9 mph75%30.40 "HgN/A
1:00 pm22 °FCold.7 mph77%30.42 "HgN/A
12:00 pm22 °FCold.8 mph85%30.44 "HgN/A
11:00 am22 °FCold.12 mph81%30.45 "HgN/A
10:00 am22 °FCold.9 mph82%30.43 "HgN/A
9:00 am22 °FCold.8 mph83%30.42 "HgN/A
8:00 am23 °FCold.8 mph83%30.40 "HgN/A
7:00 am23 °FCold.10 mph80%30.38 "HgN/A
6:00 am24 °FCold.7 mph84%30.36 "HgN/A
5:00 am23 °FCold.7 mph85%30.35 "HgN/A
4:00 am23 °FCold.3 mph86%30.35 "HgN/A
3:00 am23 °FCold.3 mph85%30.35 "HgN/A
2:00 am22 °FCold.3 mph89%30.34 "HgN/A
1:00 am22 °FCold.6 mph87%30.34 "HgN/A
12:00 am22 °FCold.3 mph87%30.34 "HgN/A
11:00 pm
Mon, Jan 16
21 °FCold.2 mph86%30.34 "HgN/A
10:00 pm21 °FCold.5 mph83%30.34 "HgN/A
9:00 pm23 °FCold.5 mph79%30.32 "HgN/A
8:00 pm24 °FCold.5 mph81%30.30 "HgN/A
7:00 pm24 °FIce fog.2 mph87%30.29 "HgN/A
6:00 pm25 °FChilly.3 mph89%30.28 "HgN/A
5:00 pm25 °FChilly.5 mph91%30.27 "HgN/A
4:00 pm25 °FCold.5 mph89%30.26 "HgN/A
Weather by CustomWeather, © 2017

See weather overviewHow to use our weather pages